W7KKE-3 Weather Reports


Display with metric or nautical units.
time (UTC)temp
F
wind
direction
speed
MPH
gust
MPH
rain 1hr
in
rain 24hr
in
rain mn
in
humidity
%
barometer
mb
20160925085620 54 0 0.0 0.0 0.00 0.01 0.00 96 1028.1
20160925085118 54 0 0.0 0.0 0.00 0.01 0.00 96 1028.2
20160925084618 54 0 0.0 3.0 0.00 0.01 0.00 96 1028.2
20160925084118 54 0 0.0 3.0 0.00 0.01 0.00 96 1028.3
20160925083618 55 96 0.0 3.0 0.00 0.01 0.00 96 1028.2
20160925083118 54 0 0.0 0.0 0.00 0.01 0.00 96 1028.3
20160925082619 55 0 0.0 0.0 0.00 0.01 0.00 96 1028.3
20160925082118 55 91 0.0 3.0 0.00 0.01 0.00 96 1028.3
20160925081618 55 64 1.0 3.0 0.00 0.01 0.00 96 1028.3
20160925081118 55 119 0.0 3.0 0.00 0.01 0.00 96 1028.2
20160925080618 55 0 0.0 5.0 0.00 0.01 0.00 96 1028.2
20160925075118 55 46 0.0 3.0 0.00 0.01 0.00 96 1028.2
20160925074618 55 75 0.0 5.0 0.00 0.01 0.00 96 1028.2
20160925074118 55 85 0.0 5.0 0.00 0.01 0.00 96 1028.3
20160925073618 55 123 0.0 5.0 0.00 0.01 0.00 96 1028.3
20160925073118 55 81 0.0 3.0 0.00 0.01 0.00 96 1028.4
20160925072619 55 70 1.0 3.0 0.00 0.01 0.00 96 1028.3
20160925072118 55 71 0.0 3.0 0.00 0.01 0.00 96 1028.3
20160925071618 55 113 0.0 3.0 0.00 0.01 0.00 96 1028.3
20160925071118 55 84 0.0 3.0 0.00 0.01 0.00 96 1028.3
20160925070618 55 82 0.0 3.0 0.00 0.01 0.00 96 1028.3
20160925070118 55 78 0.0 2.0 0.00 0.01 0.00 96 1028.3
20160925065619 55 65 1.0 4.0 0.00 0.01 0.01 96 1028.3
20160925065118 55 68 0.0 4.0 0.00 0.01 0.01 96 1028.3
20160925064618 55 79 0.0 4.0 0.00 0.01 0.01 96 1028.3
20160925064118 55 78 0.0 4.0 0.00 0.01 0.01 96 1028.3
20160925063618 55 114 0.0 4.0 0.00 0.01 0.01 96 1028.3
20160925063118 55 85 0.0 4.0 0.00 0.01 0.01 96 1028.3
20160925061118 56 0 0.0 0.0 0.00 0.01 0.01 96 1028.2
20160925060618 56 0 0.0 0.0 0.00 0.01 0.01 96 1028.0
20160925060118 56 0 0.0 0.0 0.00 0.01 0.01 96 1027.9
20160925055618 56 0 0.0 0.0 0.00 0.01 0.01 96 1027.9
20160925055118 56 0 0.0 0.0 0.00 0.01 0.01 96 1027.9
20160925054618 56 0 0.0 0.0 0.00 0.01 0.01 96 1027.8
20160925054118 56 0 0.0 0.0 0.00 0.01 0.01 96 1027.8
20160925053618 56 0 0.0 0.0 0.00 0.01 0.01 96 1027.8
20160925053117 56 0 0.0 0.0 0.00 0.01 0.01 96 1027.8
20160925052619 56 91 0.0 2.0 0.00 0.01 0.01 96 1027.8
20160925052117 56 0 0.0 2.0 0.00 0.01 0.01 96 1027.7
20160925050117 56 81 0.0 3.0 0.00 0.01 0.01 96 1027.7
20160925045618 57 84 0.0 3.0 0.00 0.01 0.01 96 1027.6
20160925045118 56 89 0.0 2.0 0.00 0.01 0.01 96 1027.6
20160925044618 57 0 0.0 0.0 0.00 0.01 0.01 96 1027.6
20160925044118 57 0 0.0 0.0 0.00 0.01 0.01 96 1027.5
20160925043617 57 0 0.0 0.0 0.00 0.01 0.01 96 1027.5
20160925043118 57 0 0.0 0.0 0.00 0.01 0.01 96 1027.4
20160925042618 57 0 0.0 2.0 0.00 0.01 0.01 95 1027.4
20160925042118 57 0 0.0 2.0 0.00 0.01 0.01 95 1027.4
20160925041617 57 71 0.0 2.0 0.00 0.01 0.01 95 1027.3
20160925040618 57 60 0.0 3.0 0.00 0.01 0.01 95 1027.4
20160925040118 57 68 0.0 3.0 0.00 0.01 0.01 95 1027.4
20160925035618 57 60 0.0 3.0 0.00 0.01 0.01 95 1027.3
20160925035117 57 74 0.0 3.0 0.00 0.01 0.01 95 1027.3
20160925034618 57 0 0.0 3.0 0.00 0.01 0.01 95 1027.2
20160925034118 57 86 0.0 3.0 0.00 0.01 0.01 95 1027.2
20160925032117 58 0 0.0 0.0 0.00 0.01 0.01 94 1027.0
20160925031617 58 0 0.0 0.0 0.00 0.01 0.01 94 1027.1
20160925031118 58 0 0.0 0.0 0.00 0.01 0.01 94 1026.8
20160925030617 58 0 0.0 0.0 0.00 0.01 0.01 94 1026.7
20160925030117 58 0 0.0 0.0 0.00 0.01 0.01 93 1026.7
20160925025118 59 0 0.0 0.0 0.00 0.01 0.01 93 1026.6
20160925024618 59 0 0.0 0.0 0.00 0.01 0.01 92 1026.6
20160925024118 59 0 0.0 0.0 0.00 0.01 0.01 92 1026.6
20160925022117 60 0 0.0 0.0 0.00 0.01 0.01 90 1026.4
20160925021617 60 0 0.0 0.0 0.00 0.01 0.01 90 1026.4
20160925021118 60 0 0.0 0.0 0.00 0.01 0.01 90 1026.4
20160925020617 61 0 0.0 8.0 0.00 0.01 0.01 89 1026.3
20160925020117 61 312 0.0 8.0 0.00 0.01 0.01 87 1026.3
20160925015618 61 329 0.0 8.0 0.00 0.01 0.01 86 1026.5
20160925015117 61 317 2.0 6.0 0.00 0.01 0.01 86 1026.5
20160925014617 61 323 3.0 6.0 0.00 0.01 0.01 85 1026.6
20160925014118 61 343 2.0 8.0 0.00 0.01 0.01 85 1026.6
20160925013617 62 341 3.0 8.0 0.00 0.01 0.01 85 1026.6
20160925013117 62 330 4.0 8.0 0.00 0.01 0.01 85 1026.5
20160925012618 62 326 4.0 8.0 0.00 0.01 0.01 85 1026.6
20160925011617 63 327 4.0 9.0 0.00 0.01 0.01 84 1026.5
20160925011118 63 337 4.0 9.0 0.00 0.01 0.01 84 1026.5
20160925010617 63 317 4.0 7.0 0.00 0.01 0.01 85 1026.4
20160925010117 63 331 3.0 7.0 0.00 0.04 0.01 85 1026.4
20160925005618 63 343 4.0 7.0 0.00 0.04 0.01 85 1026.3
20160925005117 63 317 4.0 7.0 0.00 0.04 0.01 85 1026.3
20160925004617 63 324 3.0 6.0 0.00 0.04 0.01 85 1026.4
20160925004118 63 312 1.0 6.0 0.00 0.04 0.01 86 1026.3
20160925003617 63 329 0.0 6.0 0.00 0.04 0.01 86 1026.2
20160925003117 63 341 0.0 6.0 0.00 0.04 0.01 87 1026.2
20160925002618 63 337 1.0 6.0 0.00 0.04 0.01 88 1026.4
20160925002117 63 323 2.0 6.0 0.00 0.04 0.01 88 1026.5
20160925001617 63 320 2.0 8.0 0.00 0.04 0.01 88 1026.4
20160925001118 63 336 2.0 8.0 0.00 0.04 0.01 88 1026.4
20160925000617 63 320 4.0 8.0 0.00 0.04 0.01 89 1026.4
20160925000117 63 327 2.0 6.0 0.00 0.06 0.01 90 1026.4
20160924235618 63 316 2.0 11.0 0.00 0.06 0.01 90 1026.6
20160924235117 62 331 4.0 11.0 0.00 0.06 0.01 90 1026.6
20160924234617 62 329 5.0 11.0 0.00 0.06 0.01 90 1026.7
20160924234118 63 330 5.0 9.0 0.00 0.06 0.01 90 1026.6
20160924233617 63 291 2.0 6.0 0.00 0.06 0.01 91 1026.6
20160924233117 63 281 3.0 6.0 0.00 0.06 0.01 91 1026.7
20160924232618 63 291 3.0 5.0 0.00 0.06 0.01 91 1026.7
20160924232117 63 287 2.0 5.0 0.00 0.06 0.01 91 1026.6
20160924231617 63 278 2.0 5.0 0.00 0.06 0.01 91 1026.7
20160924231118 63 295 2.0 9.0 0.00 0.06 0.01 91 1026.7
20160924230617 63 284 2.0 9.0 0.00 0.06 0.01 91 1026.7
20160924225618 63 303 6.0 13.0 0.00 0.08 0.01 91 1026.9
20160924225117 63 333 5.0 13.0 0.00 0.08 0.01 90 1026.9
20160924224617 63 329 7.0 13.0 0.00 0.08 0.01 90 1027.0
20160924224118 63 334 9.0 12.0 0.00 0.08 0.01 89 1027.0
20160924223617 64 329 7.0 12.0 0.00 0.08 0.01 89 1026.8
20160924220617 64 289 0.0 3.0 0.00 0.08 0.01 86 1026.5
20160924220117 65 280 0.0 3.0 0.00 0.09 0.01 86 1026.5
20160924215618 64 0 0.0 2.0 0.00 0.09 0.01 86 1026.5
20160924215117 65 303 0.0 2.0 0.00 0.09 0.01 86 1026.6
20160924214617 64 285 0.0 3.0 0.00 0.09 0.01 85 1026.6
20160924214119 64 284 0.0 3.0 0.00 0.09 0.01 87 1026.6
20160924213617 64 284 1.0 3.0 0.00 0.09 0.01 87 1026.7
20160924213117 64 344 0.0 11.0 0.00 0.09 0.01 88 1026.9
20160924212618 64 343 2.0 11.0 0.00 0.09 0.01 88 1027.0
20160924212117 64 334 6.0 11.0 0.00 0.09 0.01 86 1027.1
20160924211617 65 287 5.0 9.0 0.00 0.09 0.01 88 1027.2
20160924211118 65 295 5.0 9.0 0.00 0.09 0.01 89 1027.2
20160924210617 65 294 3.0 8.0 0.00 0.09 0.01 90 1027.3
20160924210117 65 330 1.0 7.0 0.00 0.09 0.01 87 1027.3
20160924205618 66 287 3.0 6.0 0.00 0.09 0.01 90 1027.3
20160924205117 65 289 2.0 4.0 0.00 0.09 0.01 91 1027.3
20160924204617 65 256 1.0 3.0 0.00 0.09 0.01 91 1027.2
20160924204119 65 275 0.0 3.0 0.00 0.09 0.01 89 1027.3
20160924203617 66 0 1.0 4.0 0.00 0.09 0.01 92 1027.3
20160924203117 66 280 0.0 4.0 0.00 0.09 0.01 93 1027.3
20160924202618 66 236 0.0 4.0 0.00 0.09 0.01 93 1027.4
20160924202117 65 190 0.0 2.0 0.00 0.09 0.01 94 1027.5
20160924201617 65 0 0.0 0.0 0.00 0.09 0.01 95 1027.5
20160924201119 65 337 0.0 9.0 0.00 0.09 0.01 94 1027.4
20160924200617 65 331 2.0 9.0 0.00 0.09 0.01 95 1027.5
20160924200117 65 313 4.0 9.0 0.00 0.11 0.01 95 1027.6
20160924195618 66 240 5.0 5.0 0.00 0.11 0.01 95 1027.7
20160924195117 65 337 0.0 10.0 0.00 0.11 0.01 96 1027.7
20160924194618 65 320 3.0 10.0 0.00 0.11 0.01 96 1027.8
20160924194117 65 327 4.0 10.0 0.00 0.11 0.01 95 1027.9
20160924193617 65 316 3.0 7.0 0.00 0.11 0.01 96 1028.0
20160924193117 65 313 3.0 7.0 0.00 0.11 0.01 96 1028.0
20160924192618 65 263 1.0 4.0 0.00 0.11 0.01 97 1028.1
20160924192117 64 294 1.0 4.0 0.00 0.11 0.01 97 1028.1
20160924191617 64 291 0.0 3.0 0.00 0.11 0.01 97 1028.1
20160924191117 64 0 0.0 0.0 0.00 0.11 0.01 97 1028.2
20160924190617 63 0 0.0 0.0 0.00 0.11 0.01 97 1028.2
20160924190117 63 0 0.0 0.0 0.00 0.16 0.01 97 1028.2
20160924185618 63 0 0.0 5.0 0.00 0.16 0.01 97 1028.2
20160924185117 63 291 0.0 5.0 0.00 0.16 0.01 98 1028.4
20160924184617 63 322 2.0 5.0 0.00 0.16 0.01 98 1028.4
20160924182618 61 280 0.0 5.0 0.00 0.16 0.01 99 1028.4
20160924182117 61 308 1.0 3.0 0.00 0.16 0.01 99 1028.3
20160924181617 61 261 0.0 3.0 0.00 0.16 0.01 99 1028.3
20160924181117 60 329 1.0 3.0 0.00 0.16 0.01 99 1028.5
20160924180617 60 284 1.0 3.0 0.00 0.16 0.01 99 1028.5
20160924180117 60 296 1.0 3.0 0.00 0.23 0.01 100 1028.3
20160924175618 60 264 0.0 2.0 0.00 0.23 0.01 100 1028.3
20160924175117 60 0 0.0 1.0 0.00 0.23 0.01 100 1028.2
20160924174617 59 302 0.0 1.0 0.00 0.23 0.01 100 1028.4
20160924174117 58 0 0.0 0.0 0.00 0.23 0.01 100 1028.4
20160924173617 58 0 0.0 0.0 0.00 0.23 0.01 100 1028.6
20160924173117 58 0 0.0 0.0 0.00 0.23 0.01 100 1028.6
20160924172618 57 0 0.0 0.0 0.00 0.23 0.01 100 1028.6
20160924172118 57 0 0.0 0.0 0.00 0.23 0.01 100 1028.4
20160924171617 57 0 0.0 0.0 0.00 0.23 0.01 100 1028.4
20160924171117 56 0 0.0 0.0 0.00 0.23 0.01 100 1028.6
20160924170617 55 0 0.0 0.0 0.00 0.23 0.01 100 1028.4
20160924165117 53 56 0.0 2.0 0.00 0.27 0.01 100 1028.2
20160924164617 53 0 0.0 0.0 0.00 0.27 0.01 100 1028.3
20160924164117 52 0 0.0 0.0 0.00 0.27 0.01 100 1028.1
20160924163617 52 0 0.0 0.0 0.00 0.27 0.01 100 1028.0
20160924163118 51 0 0.0 0.0 0.00 0.27 0.01 100 1027.8
20160924162620 51 0 0.0 0.0 0.00 0.27 0.01 100 1027.7
20160924162117 51 0 0.0 0.0 0.00 0.27 0.01 100 1027.8
20160924161619 51 0 0.0 0.0 0.00 0.27 0.01 100 1027.9
20160924161117 51 0 0.0 0.0 0.00 0.27 0.01 100 1027.9
20160924160617 50 0 0.0 0.0 0.00 0.27 0.01 100 1027.9
20160924160117 50 0 0.0 0.0 0.00 0.32 0.01 100 1027.8
20160924155618 50 0 0.0 0.0 0.00 0.32 0.01 100 1028.2
20160924155117 50 0 0.0 0.0 0.00 0.32 0.01 100 1028.4
20160924154617 49 0 0.0 0.0 0.00 0.32 0.01 100 1028.4
20160924154117 49 0 0.0 0.0 0.00 0.32 0.01 100 1028.4
20160924153617 49 0 0.0 0.0 0.00 0.32 0.01 100 1028.3
20160924151618 49 0 0.0 0.0 0.00 0.32 0.01 100 1028.0
20160924145117 48 0 0.0 3.0 0.00 0.34 0.01 100 1027.8
20160924144617 48 0 0.0 3.0 0.00 0.34 0.01 100 1027.6
20160924144117 48 70 0.0 3.0 0.00 0.34 0.01 100 1027.7
20160924143617 48 0 0.0 0.0 0.00 0.34 0.01 100 1027.5
20160924143117 48 0 0.0 2.0 0.00 0.34 0.01 100 1027.7
20160924142618 48 0 0.0 2.0 0.00 0.34 0.01 100 1027.4
20160924142117 48 33 0.0 2.0 0.00 0.34 0.01 100 1027.3
20160924141617 48 0 0.0 0.0 0.00 0.34 0.01 100 1027.3
20160924141117 48 0 0.0 0.0 0.00 0.34 0.01 100 1027.0
20160924140617 48 0 0.0 0.0 0.00 0.34 0.01 100 1027.0
20160924133617 49 0 0.0 0.0 0.00 0.34 0.01 100 1026.9
20160924133117 49 0 0.0 0.0 0.00 0.34 0.01 100 1026.8
20160924132618 49 0 0.0 0.0 0.00 0.34 0.01 100 1026.8
20160924132117 49 0 0.0 0.0 0.00 0.34 0.01 100 1027.1
20160924131617 49 0 0.0 0.0 0.00 0.34 0.01 100 1027.0
20160924131117 49 0 0.0 0.0 0.00 0.34 0.01 100 1027.0
20160924130617 49 0 0.0 0.0 0.00 0.34 0.01 100 1027.0
20160924130117 49 0 0.0 0.0 0.00 0.34 0.01 100 1027.0
20160924125618 50 0 0.0 0.0 0.00 0.34 0.01 100 1027.0
20160924125117 49 0 0.0 0.0 0.00 0.34 0.01 100 1027.0
20160924124618 49 0 0.0 0.0 0.00 0.34 0.01 100 1026.8
20160924122117 50 0 0.0 0.0 0.01 0.34 0.01 100 1026.7
20160924121618 50 0 0.0 0.0 0.01 0.34 0.01 100 1026.5
20160924121117 50 0 0.0 0.0 0.01 0.34 0.01 100 1026.7
20160924120618 50 0 0.0 0.0 0.01 0.34 0.01 100 1026.5
20160924120117 50 0 0.0 0.0 0.01 0.33 0.01 100 1026.4
20160924115617 50 0 0.0 0.0 0.01 0.33 0.01 100 1026.4
20160924115117 50 0 0.0 0.0 0.01 0.33 0.01 100 1026.3
20160924114617 51 0 0.0 0.0 0.01 0.33 0.01 100 1026.2
20160924114117 51 0 0.0 0.0 0.01 0.33 0.01 100 1026.1
20160924113617 51 0 0.0 0.0 0.01 0.33 0.01 100 1026.3
20160924113117 51 0 0.0 0.0 0.00 0.33 0.00 100 1026.4
20160924112618 51 0 0.0 0.0 0.00 0.33 0.00 100 1026.4
20160924112117 51 0 0.0 0.0 0.00 0.33 0.00 100 1026.6
20160924111617 51 0 0.0 0.0 0.00 0.33 0.00 100 1026.5
20160924111117 51 0 0.0 0.0 0.00 0.33 0.00 100 1026.4
20160924110617 51 0 0.0 0.0 0.00 0.33 0.00 100 1026.5
20160924104617 52 0 0.0 0.0 0.00 0.34 0.00 100 1026.2
20160924104117 52 0 0.0 0.0 0.00 0.34 0.00 100 1026.2
20160924102117 51 0 0.0 0.0 0.00 0.34 0.00 100 1026.4
20160924101617 51 0 0.0 0.0 0.00 0.34 0.00 100 1026.6
20160924101117 51 0 0.0 0.0 0.00 0.34 0.00 100 1026.5
20160924100617 51 0 0.0 0.0 0.00 0.34 0.00 100 1026.4
20160924100117 52 0 0.0 0.0 0.00 0.34 0.00 100 1026.4
20160924095617 52 0 0.0 0.0 0.00 0.34 0.00 100 1026.3
20160924095117 51 0 0.0 2.0 0.00 0.34 0.00 100 1026.2
20160924092617 52 77 0.0 1.0 0.00 0.34 0.00 100 1026.1
20160924092117 52 0 0.0 0.0 0.00 0.34 0.00 100 1026.2
20160924090117 52 0 0.0 2.0 0.00 0.34 0.00 100 1026.4